Powrót do katalogu

STARLINK-30562

AktywnyŁącznośćVLEO
NORAD 58033·PAYLOAD·🇺🇸 United States

Wystrzelony Oct 9, 2023 z Vandenberg Space Force Base

Loading…

Następne Przeloty (najbliższe 24 godziny)

TLE

ŚwieżeSource: CelesTrak SupGP

Epoka: Sep 15, 2026, 01:42 UTC

1 58033C 23156F   26258.07131944  .00029675  00000+0  87689-3 0  2585
2 58033  53.1605   7.1137 0001172  93.2754  60.4104 15.34371488    11

Śledź STARLINK-30562 w czasie rzeczywistym z AllMySat

Download on the App Store